FW7456 Weather Reports


time (UTC)temp
C
wind
direction
speed
KPH
gust
KPH
rain 1hr
cm
rain 24hr
cm
rain mn
cm
humidity
%
barometer
mb
20260508184555 19 121 6.4 22.5 0.00 0.13 0.00 50 1018.5
20260508183058 19 199 6.4 17.7 0.00 0.13 0.00 49 1018.9
20260508181555 20 234 8.0 19.3 0.00 0.13 0.00 49 1019.1
20260508180055 19 108 3.2 12.9 0.00 0.13 0.00 48 1019.1
20260508174552 19 173 3.2 14.5 0.00 0.13 0.00 52 1019.3
20260508173054 18 242 4.8 19.3 0.00 0.13 0.00 50 1019.7
20260508171557 17 148 4.8 11.3 0.00 0.13 0.00 51 1019.8
20260508170100 18 159 4.8 12.9 0.00 0.13 0.00 52 1020.4
20260508164558 18 211 3.2 11.3 0.00 0.13 0.00 49 1020.6
20260508163106 17 130 6.4 14.5 0.00 0.13 0.00 51 1021.0
20260508161559 17 290 3.2 9.7 0.00 0.13 0.00 54 1021.3
20260508160056 17 113 9.7 19.3 0.00 0.13 0.00 52 1021.9
20260508154556 17 106 9.7 16.1 0.00 0.13 0.00 54 1022.2
20260508153107 17 126 4.8 11.3 0.00 0.13 0.00 55 1022.3
20260508151556 17 319 3.2 9.7 0.00 0.13 0.00 53 1022.3
20260508150053 17 263 3.2 12.9 0.00 0.13 0.00 53 1022.7
20260508144557 16 259 4.8 9.7 0.00 0.13 0.00 54 1022.8
20260508143114 16 182 4.8 9.7 0.00 0.13 0.00 59 1023.0
20260508141558 15 119 3.2 8.0 0.00 0.13 0.00 58 1022.9
20260508140110 15 184 1.6 8.0 0.00 0.13 0.00 61 1022.7
20260508134552 15 184 3.2 9.7 0.00 0.15 0.00 62 1022.5
20260508133057 15 303 3.2 6.4 0.00 0.15 0.00 62 1022.5
20260508131552 13 0 0.0 6.4 0.00 0.15 0.00 67 1022.3
20260508130053 13 278 0.0 4.8 0.00 0.15 0.00 69 1021.9
20260508124554 13 278 0.0 4.8 0.00 0.25 0.00 70 1021.7
20260508123054 12 301 1.6 4.8 0.00 0.25 0.00 73 1021.0
20260508121550 11 309 1.6 4.8 0.00 0.25 0.00 86 1020.9
20260508120112 10 340 0.0 3.2 0.00 0.25 0.00 89 1020.6
20260508114602 8 0 0.0 3.2 0.00 0.53 0.00 89 1020.2
20260508113109 7 0 0.0 4.8 0.00 0.53 0.00 92 1019.7
20260508111553 6 342 1.6 8.0 0.00 0.53 0.00 93 1019.2
20260508104552 6 0 0.0 8.0 0.00 0.53 0.00 93 1018.5
20260508103056 6 314 0.0 6.4 0.00 0.53 0.00 93 1018.1
20260508101554 6 319 1.6 11.3 0.00 0.53 0.00 93 1017.9
20260508100114 6 360 3.2 8.0 0.00 0.53 0.00 93 1017.8
20260508094551 6 0 3.2 9.7 0.00 0.53 0.00 92 1017.8
20260508093053 6 325 1.6 6.4 0.00 0.53 0.00 92 1017.8
20260508091607 7 327 1.6 8.0 0.00 0.53 0.00 92 1017.8
20260508090053 7 294 3.2 6.4 0.00 0.53 0.00 92 1017.7
20260508084553 7 302 3.2 6.4 0.00 0.58 0.00 92 1017.5
20260508083050 7 318 1.6 4.8 0.00 0.58 0.00 92 1017.5
20260508081614 7 321 3.2 8.0 0.00 0.58 0.00 92 1017.4
20260508080050 7 313 4.8 11.3 0.00 0.58 0.00 92 1017.2
20260508074559 7 289 4.8 11.3 0.00 0.58 0.00 93 1017.0
20260508073102 7 298 1.6 6.4 0.00 0.58 0.00 93 1016.8
20260508071557 7 305 3.2 6.4 0.00 0.58 0.00 92 1016.8
20260508070056 7 307 0.0 4.8 0.00 0.58 0.00 92 1017.0
20260508064556 7 308 1.6 8.0 0.00 0.58 0.00 92 1016.8
20260508063058 8 352 3.2 6.4 0.00 0.58 0.00 92 1016.7
20260508061559 8 323 3.2 8.0 0.00 0.58 0.00 92 1016.5
20260508060125 8 327 3.2 6.4 0.00 0.58 0.00 91 1016.6
20260508054639 8 0 0.0 3.2 0.00 0.69 0.00 91 1016.8
20260508053055 8 0 0.0 4.8 0.00 0.69 0.00 91 1016.6
20260508051552 8 318 3.2 6.4 0.00 0.69 0.00 91 1016.6
20260508050056 8 295 3.2 8.0 0.00 0.69 0.00 91 1016.6
20260508044554 8 360 3.2 8.0 0.00 0.81 0.00 90 1016.4
20260508043058 9 326 3.2 8.0 0.00 0.81 0.00 89 1016.3
20260508041554 9 325 3.2 6.4 0.00 0.81 0.00 89 1016.3
20260508040055 9 0 1.6 12.9 0.00 0.81 0.00 89 1016.5
20260508034553 9 294 3.2 4.8 0.00 0.81 0.81 90 1016.3
20260508033049 10 0 0.0 3.2 0.00 0.81 0.81 88 1016.3
20260508031556 10 0 0.0 3.2 0.00 0.81 0.81 86 1016.2
20260508030055 10 0 0.0 6.4 0.00 0.81 0.81 85 1016.2
20260508024607 12 0 0.0 4.8 0.00 0.94 0.81 74 1015.9
20260508023054 12 0 0.0 0.0 0.00 0.94 0.81 77 1015.5
20260508021551 12 0 0.0 4.8 0.00 0.94 0.81 77 1015.6
20260508014602 13 0 0.0 4.8 0.00 1.07 0.81 70 1015.2
20260508013101 13 274 1.6 4.8 0.00 1.07 0.81 68 1014.8
20260508011606 14 311 1.6 11.3 0.00 1.07 0.81 67 1014.4
20260508010054 14 344 1.6 8.0 0.00 1.07 0.81 68 1014.4
20260508004553 15 80 1.6 9.7 0.00 1.24 0.81 67 1014.2
20260508003055 15 360 0.0 8.0 0.00 1.24 0.81 69 1013.7
20260508001553 15 360 4.8 14.5 0.00 1.24 0.81 66 1013.5
20260508000056 16 311 4.8 12.9 0.00 1.24 0.81 66 1013.3
20260507234553 17 360 4.8 12.9 0.00 1.37 0.81 63 1013.6
20260507233103 17 360 1.6 12.9 0.00 1.37 0.81 63 1013.3
20260507231559 18 130 6.4 22.5 0.00 1.37 0.81 62 1013.1
20260507230056 18 324 8.0 27.4 0.00 1.37 0.81 64 1012.8
20260507224553 20 338 8.0 32.2 0.00 1.40 0.81 62 1012.6
20260507223055 21 15 9.7 24.1 0.00 1.40 0.81 61 1012.3
20260507221554 21 323 6.4 16.1 0.00 1.40 0.81 61 1011.9
20260507220059 21 283 8.0 24.1 0.00 1.40 0.81 61 1011.5
20260507214558 22 312 12.9 22.5 0.00 1.40 0.81 61 1011.3
20260507213058 22 315 14.5 27.4 0.00 1.40 0.81 61 1010.9
20260507211603 22 311 12.9 27.4 0.00 1.40 0.81 62 1010.7
20260507204601 23 336 8.0 19.3 0.00 1.40 0.81 65 1010.5
20260507203100 23 288 3.2 14.5 0.00 1.40 0.81 72 1010.2
20260507201556 22 325 3.2 9.7 0.00 1.40 0.81 76 1010.3
20260507200053 22 0 1.6 8.0 0.03 1.40 0.81 85 1010.4
20260507194557 21 130 1.6 4.8 0.13 1.40 0.81 85 1010.3
20260507193055 21 0 0.0 4.8 0.13 1.40 0.81 87 1010.6
20260507191557 19 351 0.0 4.8 0.13 1.40 0.81 92 1010.9
20260507190055 19 0 1.6 16.1 0.10 1.37 0.79 87 1011.2